QPF
0.03 0.04 0.03 0.03 0.04 0.06 0.05 0.05 0.06 0.06 0.06 0.06 0.05 0.05 0.05 0.07 0.07 0.04 0.05 0.03 0.02 0.02 0.02 0.02 0.02 0.01 0.01 0.01 0.01 0.01 0.00 0.00 0.00 0.01 0.01 0.01 0.02 0.01 0.01 0.01 0.01 0.01 0.01
0.02 0.03 0.02 0.02 0.03 0.04 0.05 0.05 0.04 0.05 0.05 0.06 0.06 0.07 0.05 0.06 0.04 0.04 0.05 0.03 0.03 0.02 0.03 0.04 0.03 0.03 0.03 0.02 0.01 0.01 0.01 0.01 0.01 0.01 0.01 0.01 0.01 0.01 0.02 0.02 0.01 0.01 0.01
0.02 0.02 0.02 0.02 0.04 0.05 0.05 0.06 0.05 0.03 0.04 0.05 0.05 0.05 0.05 0.06 0.05 0.05 0.05 0.03 0.03 0.02 0.02 0.05 0.06 0.04 0.04 0.03 0.02 0.02 0.02 0.02 0.01 0.02 0.02 0.01 0.01 0.01 0.01 0.01 0.01 0.01 0.01
0.03 0.03 0.03 0.03 0.04 0.06 0.05 0.05 0.04 0.03 0.04 0.05 0.05 0.04 0.04 0.05 0.05 0.05 0.04 0.04 0.04 0.04 0.03 0.05 0.06 0.05 0.04 0.05 0.05 0.04 0.04 0.03 0.02 0.02 0.02 0.02 0.02 0.01 0.01 0.01 0.01 0.01 0.01
0.04 0.03 0.05 0.05 0.06 0.08 0.08 0.07 0.07 0.05 0.04 0.04 0.03 0.04 0.05 0.07 0.07 0.07 0.05 0.04 0.05 0.06 0.06 0.06 0.07 0.07 0.06 0.06 0.07 0.10 0.10 0.08 0.05 0.04 0.04 0.04 0.03 0.03 0.02 0.02 0.02 0.01 0.01
0.05 0.04 0.05 0.07 0.08 0.07 0.06 0.07 0.07 0.07 0.07 0.05 0.04 0.04 0.06 0.06 0.06 0.06 0.08 0.07 0.07 0.07 0.08 0.09 0.08 0.06 0.06 0.07 0.08 0.10 0.10 0.10 0.08 0.06 0.05 0.06 0.05 0.04 0.04 0.04 0.03 0.03 0.02
0.05 0.05 0.05 0.06 0.06 0.05 0.05 0.05 0.06 0.07 0.07 0.07 0.05 0.05 0.06 0.05 0.05 0.07 0.09 0.12 0.09 0.07 0.07 0.10 0.12 0.09 0.06 0.06 0.07 0.08 0.10 0.11 0.10 0.09 0.08 0.09 0.08 0.07 0.05 0.05 0.05 0.04 0.04
0.03 0.03 0.04 0.04 0.04 0.05 0.03 0.03 0.06 0.07 0.06 0.05 0.04 0.05 0.04 0.04 0.04 0.05 0.06 0.06 0.06 0.06 0.06 0.07 0.11 0.11 0.11 0.08 0.08 0.09 0.10 0.11 0.11 0.11 0.10 0.09 0.09 0.08 0.07 0.07 0.07 0.06 0.06
0.02 0.03 0.02 0.02 0.03 0.03 0.02 0.03 0.04 0.05 0.05 0.05 0.03 0.03 0.04 0.04 0.04 0.05 0.03 0.04 0.04 0.04 0.05 0.05 0.08 0.10 0.11 0.11 0.10 0.09 0.07 0.07 0.09 0.11 0.11 0.10 0.10 0.10 0.08 0.07 0.07 0.06 0.06
0.01 0.01 0.02 0.02 0.02 0.02 0.02 0.02 0.03 0.04 0.04 0.04 0.03 0.04 0.05 0.06 0.07 0.07 0.04 0.05 0.06 0.04 0.04 0.04 0.07 0.09 0.09 0.09 0.09 0.10 0.08 0.06 0.07 0.10 0.12 0.12 0.11 0.10 0.10 0.09 0.09 0.07 0.06
0.02 0.02 0.02 0.02 0.02 0.02 0.02 0.02 0.03 0.04 0.04 0.03 0.03 0.04 0.05 0.07 0.09 0.08 0.06 0.06 0.05 0.03 0.03 0.03 0.05 0.05 0.06 0.08 0.07 0.07 0.09 0.09 0.10 0.11 0.10 0.10 0.11 0.11 0.10 0.09 0.10 0.09 0.09
0.02 0.02 0.02 0.02 0.02 0.03 0.02 0.02 0.03 0.03 0.02 0.03 0.03 0.04 0.05 0.06 0.05 0.04 0.05 0.05 0.03 0.02 0.02 0.02 0.02 0.03 0.05 0.06 0.05 0.08 0.10 0.12 0.12 0.11 0.09 0.09 0.11 0.11 0.10 0.11 0.12 0.12 0.11
0.03 0.02 0.03 0.03 0.02 0.02 0.02 0.02 0.02 0.02 0.02 0.03 0.03 0.02 0.03 0.03 0.03 0.03 0.05 0.04 0.03 0.02 0.02 0.02 0.03 0.03 0.04 0.03 0.03 0.05 0.06 0.09 0.08 0.07 0.07 0.07 0.09 0.11 0.11 0.09 0.08 0.08 0.10
0.03 0.03 0.03 0.03 0.03 0.03 0.03 0.03 0.04 0.03 0.03 0.02 0.02 0.02 0.02 0.03 0.03 0.02 0.02 0.03 0.03 0.03 0.03 0.02 0.03 0.03 0.03 0.02 0.02 0.04 0.04 0.04 0.05 0.06 0.06 0.06 0.07 0.08 0.09 0.08 0.06 0.06 0.06
0.03 0.03 0.03 0.03 0.04 0.06 0.06 0.06 0.06 0.05 0.04 0.03 0.02 0.04 0.04 0.03 0.02 0.02 0.03 0.04 0.04 0.04 0.04 0.03 0.03 0.04 0.03 0.03 0.03 0.04 0.03 0.05 0.07 0.09 0.09 0.07 0.06 0.06 0.06 0.06 0.04 0.05 0.05
0.02 0.03 0.03 0.03 0.03 0.07 0.08 0.06 0.05 0.06 0.06 0.05 0.05 0.04 0.03 0.02 0.02 0.02 0.02 0.03 0.04 0.04 0.04 0.03 0.03 0.03 0.04 0.04 0.05 0.05 0.05 0.06 0.06 0.05 0.05 0.05 0.05 0.05 0.05 0.06 0.05 0.05 0.06
0.02 0.03 0.03 0.03 0.04 0.05 0.07 0.07 0.05 0.03 0.04 0.04 0.04 0.04 0.04 0.03 0.02 0.02 0.02 0.03 0.04 0.04 0.03 0.03 0.03 0.03 0.02 0.03 0.05 0.05 0.05 0.05 0.05 0.04 0.04 0.03 0.03 0.03 0.03 0.03 0.03 0.03 0.04
0.03 0.04 0.04 0.04 0.04 0.04 0.04 0.04 0.03 0.03 0.03 0.03 0.04 0.05 0.05 0.04 0.03 0.03 0.03 0.02 0.03 0.02 0.02 0.03 0.04 0.04 0.03 0.04 0.05 0.05 0.05 0.06 0.06 0.05 0.05 0.04 0.03 0.03 0.03 0.03 0.03 0.02 0.02
0.03 0.03 0.04 0.04 0.05 0.05 0.04 0.04 0.04 0.04 0.04 0.04 0.03 0.04 0.04 0.05 0.04 0.03 0.02 0.02 0.02 0.02 0.03 0.02 0.02 0.02 0.03 0.03 0.05 0.05 0.05 0.05 0.05 0.06 0.05 0.04 0.04 0.03 0.03 0.03 0.02 0.02 0.02
0.03 0.02 0.03 0.04 0.05 0.07 0.06 0.06 0.06 0.06 0.06 0.05 0.04 0.03 0.04 0.04 0.03 0.03 0.03 0.03 0.04 0.03 0.02 0.02 0.03 0.04 0.04 0.04 0.04 0.04 0.03 0.02 0.02 0.03 0.03 0.03 0.04 0.04 0.04 0.04 0.04 0.03 0.03
0.06 0.03 0.04 0.06 0.08 0.09 0.08 0.08 0.09 0.08 0.07 0.06 0.05 0.04 0.03 0.03 0.04 0.04 0.04 0.03 0.04 0.04 0.04 0.03 0.04 0.05 0.05 0.05 0.05 0.05 0.04 0.03 0.02 0.02 0.02 0.03 0.04 0.06 0.07 0.08 0.08 0.06 0.06
0.08 0.05 0.04 0.06 0.06 0.07 0.06 0.07 0.06 0.05 0.04 0.04 0.04 0.03 0.02 0.03 0.03 0.04 0.05 0.04 0.04 0.05 0.04 0.03 0.03 0.04 0.04 0.05 0.06 0.06 0.06 0.05 0.03 0.03 0.03 0.04 0.06 0.08 0.09 0.08 0.08 0.07 0.06
0.07 0.07 0.08 0.08 0.07 0.06 0.06 0.04 0.04 0.04 0.03 0.03 0.03 0.02 0.02 0.03 0.03 0.05 0.06 0.07 0.07 0.06 0.06 0.05 0.03 0.02 0.02 0.02 0.04 0.04 0.04 0.04 0.04 0.04 0.04 0.06 0.09 0.08 0.08 0.08 0.05 0.04 0.03
0.12 0.11 0.09 0.08 0.07 0.06 0.05 0.04 0.04 0.04 0.03 0.03 0.02 0.02 0.03 0.03 0.03 0.06 0.07 0.06 0.06 0.05 0.05 0.04 0.03 0.03 0.03 0.04 0.05 0.04 0.04 0.05 0.06 0.06 0.06 0.07 0.08 0.06 0.04 0.03 0.02 0.02 0.02
0.09 0.09 0.08 0.08 0.08 0.06 0.07 0.06 0.05 0.05 0.04 0.03 0.02 0.02 0.03 0.02 0.04 0.05 0.05 0.04 0.03 0.02 0.03 0.03 0.02 0.03 0.03 0.05 0.06 0.07 0.07 0.06 0.06 0.06 0.07 0.08 0.07 0.06 0.05 0.03 0.03 0.03 0.03
0.08 0.08 0.08 0.08 0.08 0.08 0.10 0.11 0.09 0.06 0.04 0.03 0.03 0.02 0.02 0.02 0.04 0.03 0.02 0.02 0.02 0.02 0.03 0.02 0.02 0.02 0.03 0.03 0.05 0.06 0.05 0.06 0.06 0.06 0.06 0.07 0.08 0.08 0.07 0.06 0.05 0.04 0.04
MSLP
1017.83 1017.93 1017.94 1017.89 1017.83 1017.77 1017.74 1017.74 1017.77 1017.79 1017.79 1017.76 1017.69 1017.61 1017.53 1017.48 1017.50 1017.59 1017.76 1017.97 1018.21 1018.44 1018.64 1018.80 1018.90 1018.96 1019.00 1019.05 1019.12 1019.23 1019.39 1019.57 1019.77 1019.97 1020.16 1020.33 1020.47 1020.57 1020.65 1020.71 1020.75 1020.79 1020.83
1017.78 1017.88 1017.91 1017.88 1017.84 1017.79 1017.77 1017.77 1017.78 1017.79 1017.78 1017.74 1017.67 1017.58 1017.48 1017.40 1017.37 1017.39 1017.48 1017.62 1017.79 1017.98 1018.16 1018.32 1018.45 1018.55 1018.63 1018.71 1018.80 1018.91 1019.05 1019.21 1019.39 1019.57 1019.76 1019.93 1020.09 1020.23 1020.34 1020.43 1020.49 1020.55 1020.59
1017.58 1017.69 1017.75 1017.76 1017.76 1017.75 1017.76 1017.78 1017.80 1017.82 1017.81 1017.78 1017.71 1017.60 1017.49 1017.37 1017.27 1017.21 1017.19 1017.23 1017.31 1017.42 1017.55 1017.70 1017.84 1017.98 1018.11 1018.23 1018.35 1018.47 1018.59 1018.72 1018.87 1019.03 1019.20 1019.37 1019.54 1019.70 1019.84 1019.97 1020.06 1020.14 1020.21
1017.26 1017.38 1017.47 1017.54 1017.59 1017.65 1017.70 1017.76 1017.81 1017.84 1017.85 1017.83 1017.77 1017.67 1017.53 1017.37 1017.21 1017.05 1016.91 1016.82 1016.78 1016.79 1016.85 1016.96 1017.10 1017.27 1017.44 1017.60 1017.76 1017.89 1018.01 1018.13 1018.25 1018.37 1018.52 1018.68 1018.85 1019.02 1019.19 1019.34 1019.46 1019.57 1019.66
1016.84 1016.97 1017.09 1017.22 1017.35 1017.47 1017.59 1017.69 1017.78 1017.84 1017.88 1017.88 1017.83 1017.74 1017.60 1017.41 1017.18 1016.93 1016.67 1016.45 1016.27 1016.16 1016.13 1016.18 1016.31 1016.48 1016.69 1016.90 1017.08 1017.24 1017.37 1017.47 1017.57 1017.66 1017.78 1017.91 1018.08 1018.25 1018.43 1018.59 1018.74 1018.85 1018.95
1016.39 1016.51 1016.67 1016.85 1017.05 1017.24 1017.42 1017.58 1017.70 1017.80 1017.86 1017.88 1017.87 1017.80 1017.66 1017.46 1017.19 1016.87 1016.52 1016.17 1015.87 1015.63 1015.50 1015.48 1015.57 1015.74 1015.95 1016.19 1016.41 1016.59 1016.73 1016.83 1016.91 1016.98 1017.07 1017.18 1017.32 1017.49 1017.66 1017.82 1017.96 1018.07 1018.16
1015.94 1016.05 1016.23 1016.46 1016.72 1016.97 1017.20 1017.40 1017.55 1017.67 1017.76 1017.82 1017.84 1017.81 1017.71 1017.53 1017.26 1016.90 1016.48 1016.04 1015.63 1015.29 1015.06 1014.95 1014.98 1015.12 1015.33 1015.58 1015.82 1016.03 1016.18 1016.29 1016.36 1016.42 1016.48 1016.57 1016.69 1016.83 1016.97 1017.11 1017.23 1017.31 1017.37
1015.55 1015.63 1015.82 1016.08 1016.37 1016.66 1016.92 1017.14 1017.31 1017.45 1017.56 1017.65 1017.72 1017.75 1017.72 1017.59 1017.36 1017.01 1016.58 1016.09 1015.60 1015.17 1014.85 1014.66 1014.62 1014.71 1014.90 1015.14 1015.39 1015.61 1015.78 1015.89 1015.97 1016.02 1016.08 1016.15 1016.24 1016.35 1016.46 1016.56 1016.63 1016.67 1016.68
1015.21 1015.28 1015.46 1015.72 1016.02 1016.32 1016.58 1016.79 1016.95 1017.09 1017.22 1017.35 1017.47 1017.58 1017.64 1017.60 1017.45 1017.17 1016.77 1016.28 1015.76 1015.28 1014.88 1014.62 1014.51 1014.54 1014.68 1014.90 1015.13 1015.35 1015.53 1015.66 1015.75 1015.81 1015.87 1015.93 1016.01 1016.09 1016.16 1016.21 1016.23 1016.20 1016.14
1014.94 1014.97 1015.13 1015.37 1015.65 1015.92 1016.14 1016.32 1016.45 1016.58 1016.71 1016.87 1017.06 1017.26 1017.42 1017.51 1017.48 1017.30 1016.98 1016.54 1016.04 1015.54 1015.10 1014.78 1014.59 1014.56 1014.64 1014.81 1015.02 1015.22 1015.40 1015.54 1015.64 1015.72 1015.79 1015.87 1015.94 1016.00 1016.04 1016.05 1016.01 1015.92 1015.79
1014.69 1014.70 1014.82 1015.02 1015.24 1015.45 1015.61 1015.72 1015.81 1015.90 1016.03 1016.22 1016.47 1016.76 1017.04 1017.27 1017.38 1017.33 1017.12 1016.77 1016.32 1015.84 1015.39 1015.03 1014.79 1014.68 1014.70 1014.81 1014.97 1015.15 1015.31 1015.46 1015.57 1015.67 1015.76 1015.85 1015.93 1015.99 1016.02 1016.00 1015.92 1015.79 1015.60
1014.45 1014.43 1014.50 1014.64 1014.78 1014.90 1014.98 1015.02 1015.04 1015.08 1015.20 1015.40 1015.71 1016.08 1016.48 1016.84 1017.09 1017.19 1017.11 1016.87 1016.51 1016.07 1015.64 1015.26 1014.98 1014.82 1014.77 1014.82 1014.92 1015.06 1015.19 1015.33 1015.45 1015.56 1015.67 1015.79 1015.89 1015.97 1016.00 1015.98 1015.89 1015.73 1015.51
1014.19 1014.14 1014.16 1014.22 1014.28 1014.30 1014.28 1014.23 1014.18 1014.18 1014.28 1014.50 1014.84 1015.28 1015.77 1016.24 1016.62 1016.85 1016.90 1016.78 1016.51 1016.15 1015.76 1015.39 1015.09 1014.89 1014.79 1014.77 1014.81 1014.89 1014.99 1015.09 1015.21 1015.33 1015.46 1015.60 1015.73 1015.84 1015.90 1015.90 1015.82 1015.67 1015.45
1013.90 1013.83 1013.80 1013.79 1013.75 1013.68 1013.57 1013.44 1013.33 1013.29 1013.37 1013.59 1013.95 1014.44 1014.99 1015.53 1016.00 1016.33 1016.49 1016.48 1016.31 1016.03 1015.70 1015.37 1015.08 1014.86 1014.72 1014.64 1014.62 1014.64 1014.69 1014.75 1014.84 1014.95 1015.09 1015.25 1015.42 1015.56 1015.67 1015.71 1015.67 1015.55 1015.36
1013.61 1013.53 1013.45 1013.37 1013.25 1013.10 1012.92 1012.73 1012.58 1012.51 1012.58 1012.79 1013.17 1013.66 1014.23 1014.81 1015.32 1015.71 1015.95 1016.02 1015.94 1015.75 1015.49 1015.21 1014.95 1014.74 1014.58 1014.47 1014.39 1014.35 1014.33 1014.35 1014.39 1014.48 1014.62 1014.78 1014.97 1015.15 1015.31 1015.40 1015.41 1015.35 1015.21
1013.34 1013.25 1013.13 1013.00 1012.83 1012.62 1012.40 1012.18 1012.02 1011.95 1012.01 1012.22 1012.58 1013.07 1013.62 1014.18 1014.69 1015.09 1015.36 1015.47 1015.46 1015.35 1015.17 1014.96 1014.76 1014.58 1014.42 1014.29 1014.17 1014.08 1014.00 1013.95 1013.95 1014.00 1014.10 1014.26 1014.46 1014.67 1014.86 1015.00 1015.08 1015.07 1014.99
1013.13 1013.02 1012.88 1012.71 1012.51 1012.29 1012.06 1011.86 1011.71 1011.66 1011.74 1011.95 1012.29 1012.73 1013.23 1013.73 1014.19 1014.55 1014.81 1014.94 1014.97 1014.92 1014.82 1014.69 1014.56 1014.43 1014.29 1014.16 1014.03 1013.89 1013.76 1013.65 1013.58 1013.58 1013.64 1013.78 1013.96 1014.18 1014.40 1014.58 1014.71 1014.75 1014.72
1012.96 1012.85 1012.69 1012.51 1012.31 1012.10 1011.91 1011.75 1011.66 1011.66 1011.76 1011.98 1012.29 1012.68 1013.10 1013.51 1013.87 1014.16 1014.37 1014.48 1014.53 1014.53 1014.49 1014.44 1014.38 1014.31 1014.23 1014.11 1013.97 1013.81 1013.63 1013.47 1013.35 1013.28 1013.30 1013.39 1013.55 1013.76 1013.98 1014.19 1014.34 1014.43 1014.44
1012.84 1012.71 1012.54 1012.37 1012.19 1012.03 1011.90 1011.82 1011.80 1011.87 1012.02 1012.24 1012.53 1012.85 1013.18 1013.48 1013.73 1013.92 1014.05 1014.13 1014.17 1014.19 1014.21 1014.23 1014.24 1014.24 1014.20 1014.12 1013.99 1013.82 1013.62 1013.41 1013.23 1013.11 1013.07 1013.12 1013.25 1013.43 1013.64 1013.84 1014.01 1014.12 1014.16
1012.71 1012.56 1012.40 1012.24 1012.11 1012.01 1011.97 1011.98 1012.06 1012.20 1012.40 1012.64 1012.90 1013.16 1013.39 1013.57 1013.71 1013.79 1013.83 1013.85 1013.87 1013.90 1013.96 1014.03 1014.11 1014.16 1014.18 1014.14 1014.03 1013.85 1013.63 1013.40 1013.18 1013.02 1012.94 1012.94 1013.02 1013.17 1013.36 1013.55 1013.71 1013.83 1013.88
1012.55 1012.38 1012.22 1012.09 1012.01 1011.99 1012.03 1012.15 1012.32 1012.54 1012.79 1013.04 1013.28 1013.48 1013.62 1013.71 1013.73 1013.71 1013.66 1013.62 1013.61 1013.63 1013.70 1013.81 1013.93 1014.03 1014.09 1014.08 1013.99 1013.83 1013.61 1013.36 1013.13 1012.93 1012.82 1012.78 1012.83 1012.95 1013.11 1013.27 1013.43 1013.53 1013.59
1012.33 1012.15 1011.99 1011.90 1011.87 1011.92 1012.05 1012.25 1012.50 1012.79 1013.08 1013.35 1013.57 1013.72 1013.79 1013.79 1013.72 1013.62 1013.50 1013.40 1013.35 1013.35 1013.42 1013.53 1013.67 1013.79 1013.87 1013.89 1013.82 1013.67 1013.46 1013.22 1012.98 1012.78 1012.64 1012.59 1012.61 1012.70 1012.83 1012.98 1013.11 1013.21 1013.27
1012.09 1011.89 1011.74 1011.68 1011.69 1011.81 1012.00 1012.27 1012.58 1012.92 1013.24 1013.51 1013.71 1013.83 1013.85 1013.79 1013.66 1013.49 1013.31 1013.16 1013.07 1013.05 1013.10 1013.20 1013.33 1013.45 1013.53 1013.55 1013.49 1013.36 1013.16 1012.93 1012.71 1012.51 1012.37 1012.31 1012.32 1012.39 1012.51 1012.64 1012.76 1012.86 1012.91
1011.86 1011.66 1011.53 1011.49 1011.55 1011.70 1011.94 1012.24 1012.58 1012.93 1013.26 1013.53 1013.71 1013.80 1013.79 1013.70 1013.53 1013.32 1013.11 1012.94 1012.81 1012.75 1012.77 1012.83 1012.93 1013.03 1013.09 1013.10 1013.04 1012.91 1012.73 1012.52 1012.31 1012.13 1012.01 1011.95 1011.96 1012.03 1012.13 1012.26 1012.37 1012.47 1012.53
1011.72 1011.54 1011.43 1011.41 1011.49 1011.67 1011.92 1012.23 1012.57 1012.91 1013.22 1013.47 1013.63 1013.70 1013.68 1013.57 1013.39 1013.17 1012.95 1012.76 1012.61 1012.52 1012.49 1012.51 1012.56 1012.61 1012.63 1012.61 1012.54 1012.41 1012.24 1012.05 1011.86 1011.71 1011.60 1011.55 1011.57 1011.63 1011.73 1011.85 1011.97 1012.07 1012.14
1011.75 1011.59 1011.51 1011.52 1011.61 1011.78 1012.02 1012.31 1012.61 1012.92 1013.19 1013.41 1013.55 1013.61 1013.58 1013.47 1013.30 1013.09 1012.88 1012.68 1012.51 1012.39 1012.32 1012.29 1012.28 1012.27 1012.25 1012.19 1012.09 1011.96 1011.79 1011.62 1011.45 1011.32 1011.23 1011.19 1011.21 1011.27 1011.36 1011.47 1011.58 1011.68 1011.76
Thickness
5753 5752 5751 5751 5750 5750 5750 5749 5749 5749 5749 5749 5749 5749 5749 5747 5746 5745 5744 5743 5742 5741 5740 5738 5737 5736 5734 5733 5731 5730 5728 5726 5724 5723 5721 5720 5719 5717 5716 5714 5713 5711 5710
5755 5754 5753 5752 5751 5751 5751 5750 5749 5749 5749 5749 5750 5750 5749 5748 5747 5746 5745 5744 5743 5742 5740 5739 5738 5736 5735 5733 5732 5730 5729 5727 5725 5723 5722 5720 5718 5717 5715 5714 5712 5711 5710
5756 5755 5754 5753 5752 5752 5751 5750 5750 5749 5749 5749 5749 5749 5749 5749 5747 5746 5745 5744 5744 5742 5741 5740 5739 5737 5736 5734 5733 5731 5729 5727 5725 5724 5722 5720 5719 5717 5715 5714 5712 5711 5710
5758 5756 5755 5754 5753 5752 5752 5751 5750 5748 5748 5747 5747 5748 5749 5748 5748 5747 5746 5745 5744 5743 5742 5741 5740 5738 5737 5735 5734 5732 5730 5729 5727 5725 5723 5721 5719 5717 5716 5714 5713 5711 5710
5759 5757 5756 5754 5753 5753 5752 5751 5749 5748 5746 5746 5746 5746 5747 5747 5747 5747 5746 5745 5745 5744 5743 5742 5740 5739 5738 5737 5735 5734 5732 5730 5728 5726 5724 5722 5720 5718 5716 5715 5714 5712 5710
5760 5758 5757 5755 5754 5752 5751 5750 5748 5748 5746 5745 5745 5744 5745 5746 5746 5746 5746 5746 5745 5744 5743 5742 5741 5739 5738 5737 5736 5735 5733 5731 5729 5727 5725 5723 5721 5719 5717 5716 5714 5712 5710
5761 5760 5758 5756 5754 5752 5750 5749 5748 5746 5744 5744 5740 5737 5740 5743 5743 5744 5745 5745 5744 5744 5743 5742 5741 5740 5739 5737 5736 5735 5733 5731 5729 5728 5726 5724 5722 5720 5718 5716 5715 5713 5711
5762 5760 5758 5756 5755 5752 5750 5749 5748 5744 5743 5743 5738 5732 5728 5732 5737 5743 5743 5742 5742 5742 5742 5741 5741 5739 5738 5737 5736 5734 5733 5731 5729 5728 5726 5725 5723 5721 5719 5716 5714 5713 5711
5763 5761 5760 5757 5755 5753 5751 5750 5748 5745 5740 5741 5741 5734 5726 5723 5729 5735 5739 5740 5740 5739 5739 5739 5738 5737 5736 5735 5734 5733 5731 5730 5729 5727 5726 5724 5723 5721 5719 5716 5714 5713 5711
5764 5762 5760 5758 5756 5754 5752 5750 5749 5747 5743 5738 5739 5739 5736 5733 5726 5725 5731 5734 5736 5735 5735 5736 5735 5734 5733 5732 5731 5730 5729 5728 5727 5725 5724 5723 5721 5720 5718 5716 5714 5712 5710
5763 5762 5760 5758 5756 5754 5752 5751 5749 5747 5744 5740 5738 5736 5734 5732 5730 5724 5722 5726 5729 5731 5732 5732 5732 5731 5730 5729 5728 5728 5727 5726 5724 5723 5722 5721 5719 5717 5716 5714 5712 5710 5708
5762 5762 5760 5758 5756 5754 5752 5751 5749 5746 5744 5742 5739 5737 5734 5730 5727 5725 5721 5721 5722 5726 5729 5729 5729 5727 5726 5725 5725 5724 5724 5723 5721 5720 5719 5718 5716 5714 5713 5711 5709 5707 5705
5760 5760 5760 5757 5756 5754 5752 5750 5748 5746 5744 5741 5739 5737 5736 5734 5732 5728 5723 5720 5719 5721 5724 5725 5725 5724 5723 5722 5721 5720 5719 5719 5717 5716 5715 5714 5712 5711 5709 5707 5705 5704 5702
5761 5761 5759 5757 5756 5754 5752 5750 5747 5745 5743 5741 5739 5737 5735 5734 5732 5730 5725 5720 5715 5715 5717 5718 5721 5720 5719 5718 5717 5716 5715 5714 5713 5711 5710 5709 5708 5706 5704 5702 5701 5699 5698
5763 5761 5759 5757 5755 5753 5751 5748 5746 5743 5742 5739 5737 5735 5733 5732 5731 5729 5726 5723 5716 5710 5710 5713 5714 5716 5715 5714 5712 5711 5710 5709 5708 5706 5705 5704 5703 5701 5699 5697 5696 5694 5693
5763 5761 5758 5756 5754 5752 5749 5747 5744 5742 5740 5737 5735 5732 5731 5729 5728 5726 5724 5722 5719 5713 5708 5710 5710 5711 5710 5708 5707 5705 5705 5703 5702 5701 5700 5698 5697 5695 5693 5692 5690 5688 5686
5762 5760 5758 5755 5752 5749 5747 5744 5742 5740 5737 5734 5732 5730 5728 5727 5724 5723 5721 5718 5716 5712 5707 5706 5707 5706 5704 5702 5701 5699 5698 5697 5696 5695 5693 5692 5690 5688 5686 5685 5683 5681 5679
5761 5759 5756 5753 5750 5748 5745 5742 5739 5737 5734 5731 5729 5727 5724 5723 5720 5719 5717 5714 5712 5710 5705 5702 5701 5700 5698 5697 5695 5693 5692 5691 5689 5688 5687 5685 5683 5681 5679 5677 5675 5674 5672
5757 5756 5754 5750 5747 5745 5742 5740 5736 5734 5731 5729 5726 5724 5721 5719 5716 5714 5712 5710 5707 5706 5703 5699 5696 5695 5693 5691 5689 5687 5685 5683 5682 5680 5679 5677 5675 5673 5671 5669 5667 5666 5664
5752 5751 5750 5747 5745 5742 5739 5737 5733 5729 5727 5725 5723 5721 5718 5716 5713 5711 5708 5705 5702 5699 5697 5694 5691 5688 5686 5684 5681 5678 5676 5675 5673 5673 5671 5669 5667 5665 5663 5662 5660 5658 5656
5748 5747 5746 5743 5740 5738 5736 5733 5729 5726 5722 5720 5718 5717 5715 5713 5712 5709 5706 5701 5698 5694 5691 5688 5685 5682 5679 5677 5674 5672 5668 5666 5665 5664 5662 5661 5658 5656 5655 5654 5652 5650 5648
5743 5743 5741 5739 5735 5734 5732 5729 5725 5721 5718 5715 5712 5711 5710 5709 5707 5705 5702 5699 5696 5691 5686 5683 5679 5676 5674 5672 5670 5667 5662 5658 5655 5657 5654 5652 5650 5648 5647 5646 5644 5642 5641
5738 5736 5735 5733 5730 5728 5726 5724 5721 5717 5714 5711 5708 5705 5704 5703 5700 5698 5695 5693 5691 5689 5685 5681 5677 5674 5671 5669 5665 5661 5658 5654 5651 5651 5647 5644 5643 5640 5639 5638 5637 5635 5633
5733 5731 5729 5727 5725 5723 5720 5718 5714 5711 5708 5706 5703 5701 5698 5696 5694 5691 5688 5685 5683 5682 5680 5677 5675 5673 5670 5667 5663 5660 5655 5650 5647 5644 5642 5637 5636 5633 5633 5631 5630 5628 5625
5728 5726 5725 5722 5719 5716 5714 5711 5707 5703 5700 5698 5697 5695 5693 5690 5688 5685 5682 5678 5676 5674 5674 5672 5670 5668 5665 5663 5659 5654 5648 5643 5638 5636 5635 5632 5629 5626 5624 5623 5622 5620 5618
5723 5722 5719 5717 5714 5711 5708 5706 5702 5699 5695 5692 5689 5688 5686 5684 5682 5679 5675 5672 5669 5667 5666 5664 5662 5660 5658 5656 5653 5649 5645 5638 5632 5629 5629 5625 5621 5617 5614 5615 5614 5612 5610